{"data":{"norad_id":61623,"intl_designator":"2024-191C","name":"STARLINK-32331","alt_names":[],"object_type":"PAYLOAD","status":"ACTIVE","operator":null,"country":"US","launch_date":"2024-10-23","launch_site_code":"AFETR","launch_vehicle":null,"mission":null,"orbit_class":"UNKNOWN","rcs_meters":null,"size_class":null,"mass_kg":null,"dimensions":null,"purposes":["comms"],"wikipedia_slug":null,"has_3d_model":false,"image_url":null,"decayed_at":null,"tle_current":{"epoch":"2026-09-20T23:36:42.225120Z","epoch_age_seconds":150238,"freshness":"FRESH","line1":"1 61623U 24191C   26263.98382205  .00011993  00000+0  44451-3 0  9994","line2":"2 61623  43.0010 135.0921 0001102 301.1935  58.8808 15.27590275107362","mean_motion":15.27590275,"eccentricity":0.0001102,"inclination_deg":43.001,"raan_deg":135.0921,"arg_perigee_deg":301.1935,"mean_anomaly_deg":58.8808,"bstar":0.00044451,"rev_number":10736,"period_min":94.2661146491,"perigee_km":482.26222984842,"apogee_km":483.77442848297,"semimajor_km":6861.1553291657,"source":"CELESTRAK","updated_at":"2026-09-22T09:00:49.394980Z"}}}